Time,TemperatureF,DewpointF,PressureIn,WindDirection,WindDirectionDegrees,WindSpeedMPH,WindSpeedGustMPH,Humidity,HourlyPrecipIn,Conditions,Clouds,dailyrainin,SoftwareType,DateUTC
2013-02-04 00:04:00,11.8,8.2,30.03,SW,233,0.0,0.0,85,0.01,,,0.00,VWS V14.01,2013-02-04 06:04:00,
2013-02-04 00:09:00,11.8,8.2,30.03,SW,233,0.0,0.0,85,0.01,,,0.00,VWS V14.01,2013-02-04 06:09:00,
2013-02-04 00:14:00,11.8,8.2,30.03,East,86,0.0,2.0,85,0.01,,,0.00,VWS V14.01,2013-02-04 06:14:00,
2013-02-04 00:20:00,11.7,8.1,30.03,East,86,0.0,2.0,85,0.01,,,0.00,VWS V14.01,2013-02-04 06:20:00,
2013-02-04 00:25:00,11.6,8.0,30.04,East,86,0.0,2.0,85,0.01,,,0.00,VWS V14.01,2013-02-04 06:25:00,
2013-02-04 00:30:00,11.6,8.0,30.04,East,86,0.0,2.0,85,0.01,,,0.00,VWS V14.01,2013-02-04 06:30:00,
2013-02-04 00:35:00,11.5,8.1,30.04,East,85,0.0,0.0,86,0.00,,,0.00,VWS V14.01,2013-02-04 06:35:00,
2013-02-04 00:40:00,11.4,7.8,30.04,East,86,0.0,0.0,85,0.00,,,0.00,VWS V14.01,2013-02-04 06:40:00,
2013-02-04 00:45:00,11.3,7.7,30.04,East,86,0.0,0.0,85,0.00,,,0.00,VWS V14.01,2013-02-04 06:45:00,
2013-02-04 00:50:00,11.2,7.6,30.04,East,85,0.0,0.0,85,0.00,,,0.00,VWS V14.01,2013-02-04 06:50:00,
2013-02-04 00:55:00,11.2,7.6,30.04,ENE,66,0.0,0.0,85,0.00,,,0.00,VWS V14.01,2013-02-04 06:55:00,
2013-02-04 01:00:00,11.2,7.6,30.04,ENE,76,0.0,0.0,85,0.00,,,0.00,VWS V14.01,2013-02-04 07:00:00,
2013-02-04 01:05:00,11.0,7.1,30.04,ENE,77,0.0,0.0,84,0.00,,,0.00,VWS V14.01,2013-02-04 07:05:00,
2013-02-04 01:11:00,11.0,7.1,30.04,ENE,76,0.0,0.0,84,0.00,,,0.00,VWS V14.01,2013-02-04 07:11:00,
2013-02-04 01:16:00,10.9,7.0,30.04,ENE,76,0.0,0.0,84,0.00,,,0.00,VWS V14.01,2013-02-04 07:16:00,
2013-02-04 01:21:00,10.9,7.3,30.04,ENE,76,0.0,0.0,85,0.00,,,0.00,VWS V14.01,2013-02-04 07:21:00,
2013-02-04 01:26:00,10.8,7.2,30.04,ENE,77,0.0,0.0,85,0.01,,,0.01,VWS V14.01,2013-02-04 07:26:00,
2013-02-04 01:31:00,11.0,7.4,30.04,ENE,76,0.0,0.0,85,0.01,,,0.01,VWS V14.01,2013-02-04 07:31:00,
2013-02-04 01:36:00,11.0,7.1,30.04,NE,35,0.0,3.0,84,0.01,,,0.01,VWS V14.01,2013-02-04 07:36:00,
2013-02-04 01:41:00,10.9,6.8,30.04,NE,35,0.0,3.0,83,0.01,,,0.01,VWS V14.01,2013-02-04 07:41:00,
2013-02-04 01:46:00,10.7,6.6,30.04,NE,35,0.0,3.0,83,0.01,,,0.01,VWS V14.01,2013-02-04 07:46:00,
2013-02-04 01:51:00,10.5,6.6,30.04,NE,35,0.0,3.0,84,0.01,,,0.01,VWS V14.01,2013-02-04 07:51:00,
2013-02-04 01:56:00,10.3,6.4,30.04,NE,35,0.0,3.0,84,0.01,,,0.01,VWS V14.01,2013-02-04 07:56:00,
2013-02-04 02:01:00,10.2,6.3,30.04,NE,34,0.0,0.0,84,0.01,,,0.01,VWS V14.01,2013-02-04 08:01:00,
2013-02-04 02:07:00,10.2,6.3,30.04,NE,35,0.0,0.0,84,0.01,,,0.01,VWS V14.01,2013-02-04 08:07:00,
2013-02-04 02:12:00,10.2,6.6,30.05,NE,35,0.0,2.0,85,0.01,,,0.01,VWS V14.01,2013-02-04 08:12:00,
2013-02-04 02:17:00,10.2,6.6,30.05,NE,35,0.0,2.0,85,0.01,,,0.01,VWS V14.01,2013-02-04 08:17:00,
2013-02-04 02:22:00,10.3,6.4,30.05,NNW,342,0.0,3.0,84,0.01,,,0.01,VWS V14.01,2013-02-04 08:22:00,
2013-02-04 02:27:00,10.3,6.4,30.06,NNW,343,0.0,3.0,84,0.01,,,0.01,VWS V14.01,2013-02-04 08:27:00,
2013-02-04 02:32:00,10.2,6.3,30.05,NNW,343,1.0,2.0,84,0.00,,,0.01,VWS V14.01,2013-02-04 08:32:00,
2013-02-04 02:37:00,10.1,6.0,30.05,NNW,343,0.0,2.0,83,0.00,,,0.01,VWS V14.01,2013-02-04 08:37:00,
2013-02-04 02:42:00,9.8,5.7,30.05,NNW,343,0.0,2.0,83,0.00,,,0.01,VWS V14.01,2013-02-04 08:42:00,
2013-02-04 02:47:00,9.7,5.6,30.06,NNW,343,0.0,2.0,83,0.00,,,0.01,VWS V14.01,2013-02-04 08:47:00,
2013-02-04 02:52:00,9.6,5.5,30.06,NNW,343,0.0,2.0,83,0.00,,,0.01,VWS V14.01,2013-02-04 08:52:00,
2013-02-04 02:57:00,9.5,5.4,30.05,NNW,343,0.0,2.0,83,0.00,,,0.01,VWS V14.01,2013-02-04 08:57:00,
2013-02-04 03:02:00,9.4,5.0,30.05,NNW,343,0.0,0.0,82,0.00,,,0.01,VWS V14.01,2013-02-04 09:02:00,
2013-02-04 03:08:00,9.3,4.9,30.05,NNW,343,0.0,0.0,82,0.00,,,0.01,VWS V14.01,2013-02-04 09:08:00,
2013-02-04 03:13:00,9.1,4.7,30.05,NNW,343,0.0,0.0,82,0.00,,,0.01,VWS V14.01,2013-02-04 09:13:00,
2013-02-04 03:18:00,8.9,4.5,30.05,NNW,343,0.0,0.0,82,0.00,,,0.01,VWS V14.01,2013-02-04 09:18:00,
2013-02-04 03:23:00,8.8,4.4,30.05,NNW,343,0.0,0.0,82,0.00,,,0.01,VWS V14.01,2013-02-04 09:23:00,
2013-02-04 03:28:00,8.7,4.3,30.06,NNW,343,0.0,0.0,82,0.00,,,0.01,VWS V14.01,2013-02-04 09:28:00,
2013-02-04 03:33:00,8.7,4.6,30.06,NNW,343,0.0,0.0,83,0.00,,,0.01,VWS V14.01,2013-02-04 09:33:00,
2013-02-04 03:38:00,8.7,4.3,30.05,NNW,343,0.0,0.0,82,0.00,,,0.01,VWS V14.01,2013-02-04 09:38:00,
2013-02-04 03:43:00,8.6,4.2,30.06,NNW,343,0.0,0.0,82,0.00,,,0.01,VWS V14.01,2013-02-04 09:43:00,
2013-02-04 03:48:00,8.6,4.2,30.06,NNW,343,0.0,0.0,82,0.00,,,0.01,VWS V14.01,2013-02-04 09:48:00,
2013-02-04 03:53:00,8.6,4.2,30.06,NNW,343,0.0,0.0,82,0.00,,,0.01,VWS V14.01,2013-02-04 09:53:00,
2013-02-04 03:58:00,8.6,4.0,30.06,NNW,343,0.0,0.0,81,0.00,,,0.01,VWS V14.01,2013-02-04 09:58:00,
2013-02-04 04:03:00,8.6,4.0,30.06,NNW,343,0.0,0.0,81,0.00,,,0.01,VWS V14.01,2013-02-04 10:03:00,
2013-02-04 04:08:00,8.4,3.8,30.06,NNW,343,0.0,0.0,81,0.00,,,0.01,VWS V14.01,2013-02-04 10:08:00,
2013-02-04 04:13:00,8.3,4.0,30.06,NNW,342,0.0,1.0,82,0.00,,,0.01,VWS V14.01,2013-02-04 10:13:00,
2013-02-04 04:19:00,8.1,3.5,30.06,NNW,343,0.0,1.0,81,0.00,,,0.01,VWS V14.01,2013-02-04 10:19:00,
2013-02-04 04:24:00,7.9,3.3,30.06,NNW,342,0.0,1.0,81,0.00,,,0.01,VWS V14.01,2013-02-04 10:24:00,
2013-02-04 04:29:00,7.8,3.5,30.06,NNW,342,0.0,1.0,82,0.00,,,0.01,VWS V14.01,2013-02-04 10:29:00,
2013-02-04 04:34:00,7.6,3.3,30.06,NNW,343,0.0,1.0,82,0.00,,,0.01,VWS V14.01,2013-02-04 10:34:00,
2013-02-04 04:39:00,7.5,3.2,30.06,NNW,343,0.0,1.0,82,0.00,,,0.01,VWS V14.01,2013-02-04 10:39:00,
2013-02-04 04:44:00,7.6,3.3,30.06,NNW,343,0.0,1.0,82,0.00,,,0.01,VWS V14.01,2013-02-04 10:44:00,
2013-02-04 04:49:00,7.6,3.0,30.06,NNW,343,0.0,1.0,81,0.00,,,0.01,VWS V14.01,2013-02-04 10:49:00,
2013-02-04 04:54:00,7.7,3.1,30.07,NNW,345,0.0,1.0,81,0.00,,,0.01,VWS V14.01,2013-02-04 10:54:00,
2013-02-04 04:59:00,7.7,3.4,30.07,NNW,343,0.0,1.0,82,0.00,,,0.01,VWS V14.01,2013-02-04 10:59:00,
2013-02-04 05:04:00,7.7,3.4,30.06,NNW,343,0.0,0.0,82,0.00,,,0.01,VWS V14.01,2013-02-04 11:04:00,
2013-02-04 05:09:00,7.6,3.3,30.07,NNW,343,0.0,0.0,82,0.00,,,0.01,VWS V14.01,2013-02-04 11:09:00,
2013-02-04 05:14:00,7.5,3.2,30.07,NNW,343,0.0,0.0,82,0.00,,,0.01,VWS V14.01,2013-02-04 11:14:00,
2013-02-04 05:19:00,7.5,3.4,30.07,NNW,343,0.0,1.0,83,0.00,,,0.01,VWS V14.01,2013-02-04 11:19:00,
2013-02-04 05:24:00,7.5,3.2,30.07,NNW,343,0.0,1.0,82,0.00,,,0.01,VWS V14.01,2013-02-04 11:24:00,
2013-02-04 05:29:00,7.5,3.2,30.07,NNW,343,0.0,1.0,82,0.00,,,0.01,VWS V14.01,2013-02-04 11:29:00,
2013-02-04 05:34:00,7.4,2.8,30.07,NNW,343,0.0,0.0,81,0.00,,,0.01,VWS V14.01,2013-02-04 11:34:00,
2013-02-04 05:39:00,7.3,2.7,30.07,NNW,346,0.0,1.0,81,0.00,,,0.01,VWS V14.01,2013-02-04 11:39:00,
2013-02-04 05:44:00,7.4,2.8,30.07,NNW,346,0.0,1.0,81,0.00,,,0.01,VWS V14.01,2013-02-04 11:44:00,
2013-02-04 05:50:00,7.3,2.4,30.08,NNW,346,0.0,2.0,80,0.00,,,0.01,VWS V14.01,2013-02-04 11:50:00,
2013-02-04 05:55:00,7.3,2.4,30.08,NNW,347,0.0,2.0,80,0.00,,,0.01,VWS V14.01,2013-02-04 11:55:00,
2013-02-04 06:00:00,7.3,2.4,30.08,NNW,347,0.0,2.0,80,0.00,,,0.01,VWS V14.01,2013-02-04 12:00:00,
2013-02-04 06:05:00,7.4,2.5,30.08,NNW,346,0.0,0.0,80,0.00,,,0.01,VWS V14.01,2013-02-04 12:05:00,
2013-02-04 06:10:00,7.3,2.2,30.08,NNW,346,0.0,0.0,79,0.00,,,0.01,VWS V14.01,2013-02-04 12:10:00,
2013-02-04 06:15:00,7.2,1.8,30.08,NNW,347,0.0,0.0,78,0.00,,,0.01,VWS V14.01,2013-02-04 12:15:00,
2013-02-04 06:20:00,6.9,1.5,30.08,NNW,346,0.0,0.0,78,0.00,,,0.01,VWS V14.01,2013-02-04 12:20:00,
2013-02-04 06:25:00,6.8,1.4,30.09,NNW,346,0.0,0.0,78,0.00,,,0.01,VWS V14.01,2013-02-04 12:25:00,
2013-02-04 06:30:00,6.7,1.3,30.09,NNW,346,0.0,0.0,78,0.00,,,0.01,VWS V14.01,2013-02-04 12:30:00,
2013-02-04 06:35:00,6.6,1.2,30.09,NNW,346,0.0,0.0,78,0.00,,,0.01,VWS V14.01,2013-02-04 12:35:00,
2013-02-04 06:40:00,6.5,1.1,30.09,NNW,346,0.0,0.0,78,0.00,,,0.01,VWS V14.01,2013-02-04 12:40:00,
2013-02-04 06:45:00,6.5,1.4,30.09,NNW,346,0.0,0.0,79,0.00,,,0.01,VWS V14.01,2013-02-04 12:45:00,
2013-02-04 06:50:00,6.5,1.1,30.10,NNW,346,0.0,0.0,78,0.00,,,0.01,VWS V14.01,2013-02-04 12:50:00,
2013-02-04 06:55:00,6.4,1.0,30.10,North,350,0.0,2.0,78,0.00,,,0.01,VWS V14.01,2013-02-04 12:55:00,
2013-02-04 07:00:00,6.3,0.9,30.10,North,350,0.0,0.0,78,0.00,,,0.01,VWS V14.01,2013-02-04 13:00:00,
2013-02-04 07:06:00,6.3,1.2,30.10,North,350,0.0,0.0,79,0.00,,,0.01,VWS V14.01,2013-02-04 13:06:00,
2013-02-04 07:11:00,6.2,0.8,30.10,North,350,0.0,0.0,78,0.00,,,0.01,VWS V14.01,2013-02-04 13:11:00,
2013-02-04 07:16:00,6.3,0.9,30.10,North,350,0.0,0.0,78,0.00,,,0.01,VWS V14.01,2013-02-04 13:16:00,
2013-02-04 07:21:00,6.2,0.6,30.09,North,350,0.0,0.0,77,0.00,,,0.01,VWS V14.01,2013-02-04 13:21:00,
2013-02-04 07:26:00,5.9,0.3,30.09,North,350,0.0,0.0,77,0.00,,,0.01,VWS V14.01,2013-02-04 13:26:00,
2013-02-04 07:31:00,5.7,0.1,30.09,North,350,0.0,0.0,77,0.00,,,0.01,VWS V14.01,2013-02-04 13:31:00,
2013-02-04 07:36:00,5.7,0.1,30.09,North,350,0.0,0.0,77,0.00,,,0.01,VWS V14.01,2013-02-04 13:36:00,
2013-02-04 07:41:00,5.5,-0.1,30.09,North,350,0.0,0.0,77,0.00,,,0.01,VWS V14.01,2013-02-04 13:41:00,
2013-02-04 07:46:00,5.4,-0.2,30.09,North,350,0.0,0.0,77,0.00,,,0.01,VWS V14.01,2013-02-04 13:46:00,
2013-02-04 07:51:00,5.5,-0.1,30.09,North,350,0.0,0.0,77,0.00,,,0.01,VWS V14.01,2013-02-04 13:51:00,
2013-02-04 07:57:00,5.5,-0.1,30.10,North,350,0.0,0.0,77,0.00,,,0.01,VWS V14.01,2013-02-04 13:57:00,
2013-02-04 08:02:00,5.6,-0.3,30.10,North,350,0.0,0.0,76,0.00,,,0.01,VWS V14.01,2013-02-04 14:02:00,
2013-02-04 08:07:00,5.8,-0.1,30.10,North,354,0.0,1.0,76,0.00,,,0.01,VWS V14.01,2013-02-04 14:07:00,
2013-02-04 08:12:00,5.9,-0.3,30.10,North,350,0.0,1.0,75,0.00,,,0.01,VWS V14.01,2013-02-04 14:12:00,
2013-02-04 08:17:00,6.1,-0.1,30.10,North,350,0.0,1.0,75,0.00,,,0.01,VWS V14.01,2013-02-04 14:17:00,
2013-02-04 08:22:00,6.2,-0.3,30.10,North,350,0.0,1.0,74,0.00,,,0.01,VWS V14.01,2013-02-04 14:22:00,
2013-02-04 08:27:00,6.4,-0.1,30.10,North,350,0.0,1.0,74,0.00,,,0.01,VWS V14.01,2013-02-04 14:27:00,
2013-02-04 08:32:00,6.3,-0.5,30.10,North,350,0.0,0.0,73,0.00,,,0.01,VWS V14.01,2013-02-04 14:32:00,
2013-02-04 08:37:00,6.4,-0.4,30.11,North,350,0.0,0.0,73,0.00,,,0.01,VWS V14.01,2013-02-04 14:37:00,
2013-02-04 08:42:00,6.7,-0.1,30.11,North,350,0.0,0.0,73,0.00,,,0.01,VWS V14.01,2013-02-04 14:42:00,
2013-02-04 08:48:00,6.9,0.1,30.11,North,350,0.0,0.0,73,0.00,,,0.01,VWS V14.01,2013-02-04 14:48:00,
2013-02-04 08:53:00,7.0,-0.4,30.11,NNE,20,0.0,3.0,71,0.00,,,0.01,VWS V14.01,2013-02-04 14:53:00,
2013-02-04 08:58:00,7.1,0.0,30.11,NNE,20,0.0,3.0,72,0.00,,,0.01,VWS V14.01,2013-02-04 14:58:00,
2013-02-04 09:03:00,7.2,0.1,30.11,NNE,20,0.0,3.0,72,0.00,,,0.01,VWS V14.01,2013-02-04 15:03:00,
2013-02-04 09:08:00,7.4,0.0,30.11,NNE,19,0.0,3.0,71,0.00,,,0.01,VWS V14.01,2013-02-04 15:08:00,
2013-02-04 09:13:00,7.4,0.0,30.11,NNE,19,0.0,3.0,71,0.00,,,0.01,VWS V14.01,2013-02-04 15:13:00,
2013-02-04 09:18:00,7.6,0.2,30.11,North,359,0.0,3.0,71,0.00,,,0.01,VWS V14.01,2013-02-04 15:18:00,
2013-02-04 09:23:00,7.8,0.4,30.11,North,349,0.0,3.0,71,0.00,,,0.01,VWS V14.01,2013-02-04 15:23:00,
2013-02-04 09:28:00,8.1,0.7,30.12,NNW,336,0.0,3.0,71,0.00,,,0.01,VWS V14.01,2013-02-04 15:28:00,
2013-02-04 09:33:00,8.4,0.6,30.12,NNW,335,0.0,0.0,70,0.00,,,0.01,VWS V14.01,2013-02-04 15:33:00,
2013-02-04 09:38:00,8.7,0.9,30.12,NW,325,1.0,3.0,70,0.00,,,0.01,VWS V14.01,2013-02-04 15:38:00,
2013-02-04 09:44:00,9.0,0.6,30.12,NW,326,0.0,3.0,68,0.00,,,0.01,VWS V14.01,2013-02-04 15:44:00,
2013-02-04 09:49:00,9.2,1.1,30.12,NW,326,0.0,3.0,69,0.00,,,0.01,VWS V14.01,2013-02-04 15:49:00,
2013-02-04 09:54:00,9.5,1.4,30.12,NNW,327,0.0,3.0,69,0.00,,,0.01,VWS V14.01,2013-02-04 15:54:00,
2013-02-04 09:59:00,9.9,1.5,30.12,NNW,329,0.0,4.0,68,0.00,,,0.01,VWS V14.01,2013-02-04 15:59:00,
2013-02-04 10:04:00,10.2,1.8,30.13,NNW,329,0.0,0.0,68,0.00,,,0.01,VWS V14.01,2013-02-04 16:04:00,
2013-02-04 10:09:00,10.6,2.1,30.13,NNW,328,0.0,3.0,68,0.00,,,0.01,VWS V14.01,2013-02-04 16:09:00,
2013-02-04 10:14:00,11.0,2.5,30.13,NNW,328,0.0,3.0,68,0.00,,,0.01,VWS V14.01,2013-02-04 16:14:00,
2013-02-04 10:19:00,11.3,2.5,30.13,NNW,328,0.0,3.0,67,0.00,,,0.01,VWS V14.01,2013-02-04 16:19:00,
2013-02-04 10:24:00,11.6,2.8,30.13,NNW,329,0.0,3.0,67,0.00,,,0.01,VWS V14.01,2013-02-04 16:24:00,
2013-02-04 10:29:00,12.1,2.9,30.13,NNW,329,0.0,3.0,66,0.00,,,0.01,VWS V14.01,2013-02-04 16:29:00,
2013-02-04 10:35:00,12.3,2.1,30.13,NNW,328,0.0,0.0,63,0.00,,,0.01,VWS V14.01,2013-02-04 16:35:00,
2013-02-04 10:40:00,12.5,3.3,30.13,NNW,328,0.0,0.0,66,0.00,,,0.01,VWS V14.01,2013-02-04 16:40:00,
2013-02-04 10:45:00,13.0,3.5,30.13,NNW,328,0.0,2.0,65,0.00,,,0.01,VWS V14.01,2013-02-04 16:45:00,
2013-02-04 10:50:00,13.3,3.1,30.13,NNW,328,0.0,2.0,63,0.00,,,0.01,VWS V14.01,2013-02-04 16:50:00,
2013-02-04 10:55:00,13.5,3.6,30.13,NNW,328,0.0,2.0,64,0.00,,,0.01,VWS V14.01,2013-02-04 16:55:00,
2013-02-04 11:00:00,12.8,1.5,30.13,NNW,328,0.0,0.0,60,0.00,,,0.01,VWS V14.01,2013-02-04 17:00:00,
2013-02-04 11:05:00,12.6,2.1,30.12,NNW,329,0.0,0.0,62,0.00,,,0.01,VWS V14.01,2013-02-04 17:05:00,
2013-02-04 11:10:00,12.4,2.2,30.12,North,354,0.0,2.0,63,0.00,,,0.01,VWS V14.01,2013-02-04 17:10:00,
2013-02-04 11:15:00,12.7,2.2,30.11,North,354,0.0,2.0,62,0.00,,,0.01,VWS V14.01,2013-02-04 17:15:00,
2013-02-04 11:20:00,12.8,2.2,30.11,North,359,0.0,2.0,62,0.00,,,0.01,VWS V14.01,2013-02-04 17:20:00,
2013-02-04 11:26:00,12.8,1.9,30.11,North,359,0.0,2.0,61,0.00,,,0.01,VWS V14.01,2013-02-04 17:26:00,
2013-02-04 11:31:00,13.2,3.0,30.10,North,359,0.0,0.0,63,0.00,,,0.01,VWS V14.01,2013-02-04 17:31:00,
2013-02-04 11:36:00,13.5,2.9,30.10,North,359,0.0,0.0,62,0.00,,,0.01,VWS V14.01,2013-02-04 17:36:00,
2013-02-04 11:41:00,13.7,2.8,30.09,North,359,0.0,0.0,61,0.00,,,0.01,VWS V14.01,2013-02-04 17:41:00,
2013-02-04 11:46:00,13.8,2.5,30.09,ENE,77,0.0,3.0,60,0.00,,,0.01,VWS V14.01,2013-02-04 17:46:00,
2013-02-04 11:51:00,13.7,2.8,30.09,ENE,77,0.0,3.0,61,0.00,,,0.01,VWS V14.01,2013-02-04 17:51:00,
2013-02-04 11:56:00,13.9,3.0,30.09,ENE,77,0.0,3.0,61,0.00,,,0.01,VWS V14.01,2013-02-04 17:56:00,
2013-02-04 12:01:00,14.4,3.4,30.09,ENE,77,0.0,0.0,61,0.00,,,0.01,VWS V14.01,2013-02-04 18:01:00,
2013-02-04 12:06:00,15.0,4.3,30.09,ENE,77,0.0,0.0,62,0.00,,,0.01,VWS V14.01,2013-02-04 18:06:00,
2013-02-04 12:11:00,15.7,5.0,30.09,ENE,77,0.0,0.0,62,0.00,,,0.01,VWS V14.01,2013-02-04 18:11:00,
2013-02-04 12:16:00,16.4,5.0,30.09,ENE,77,1.0,2.0,60,0.00,,,0.01,VWS V14.01,2013-02-04 18:16:00,
2013-02-04 12:21:00,17.0,5.2,30.09,ENE,77,0.0,3.0,59,0.00,,,0.01,VWS V14.01,2013-02-04 18:21:00,
2013-02-04 12:26:00,17.2,5.7,30.09,South,191,0.0,5.0,60,0.00,,,0.01,VWS V14.01,2013-02-04 18:26:00,
2013-02-04 12:31:00,17.4,5.9,30.09,SSW,197,0.0,2.0,60,0.00,,,0.01,VWS V14.01,2013-02-04 18:31:00,
2013-02-04 12:36:00,17.6,5.3,30.09,SSW,201,0.0,5.0,58,0.00,,,0.01,VWS V14.01,2013-02-04 18:36:00,
2013-02-04 12:41:00,17.5,5.3,30.09,SSW,204,0.0,5.0,58,0.00,,,0.01,VWS V14.01,2013-02-04 18:41:00,
2013-02-04 12:47:00,17.4,5.5,30.08,SSW,204,2.0,5.0,59,0.00,,,0.01,VWS V14.01,2013-02-04 18:47:00,
2013-02-04 12:52:00,17.4,4.4,30.08,SSW,204,0.0,5.0,56,0.00,,,0.01,VWS V14.01,2013-02-04 18:52:00,
2013-02-04 12:57:00,17.5,5.3,30.08,SW,214,0.0,6.0,58,0.00,,,0.01,VWS V14.01,2013-02-04 18:57:00,
2013-02-04 13:02:00,17.8,5.2,30.08,SW,214,1.0,4.0,57,0.00,,,0.01,VWS V14.01,2013-02-04 19:02:00,
2013-02-04 13:07:00,17.9,4.9,30.08,SW,214,3.0,4.0,56,0.00,,,0.01,VWS V14.01,2013-02-04 19:07:00,
2013-02-04 13:12:00,17.8,4.4,30.08,SW,214,0.0,4.0,55,0.00,,,0.01,VWS V14.01,2013-02-04 19:12:00,
2013-02-04 13:17:00,18.0,5.3,30.08,SW,218,4.0,6.0,57,0.00,,,0.01,VWS V14.01,2013-02-04 19:17:00,
2013-02-04 13:22:00,17.9,4.9,30.08,SW,230,7.0,7.0,56,0.00,,,0.01,VWS V14.01,2013-02-04 19:22:00,
2013-02-04 13:27:00,17.9,5.2,30.08,SW,236,0.0,8.0,57,0.00,,,0.01,VWS V14.01,2013-02-04 19:27:00,
2013-02-04 13:32:00,17.9,5.2,30.07,SW,235,0.0,5.0,57,0.00,,,0.01,VWS V14.01,2013-02-04 19:32:00,
2013-02-04 13:37:00,17.8,5.9,30.07,SW,235,0.0,6.0,59,0.00,,,0.01,VWS V14.01,2013-02-04 19:37:00,
2013-02-04 13:42:00,17.9,4.5,30.07,SW,235,0.0,6.0,55,0.00,,,0.01,VWS V14.01,2013-02-04 19:42:00,
2013-02-04 13:48:00,17.7,4.7,30.08,WSW,245,0.0,8.0,56,0.00,,,0.01,VWS V14.01,2013-02-04 19:48:00,
2013-02-04 13:53:00,17.6,4.6,30.07,SSW,204,0.0,9.0,56,0.00,,,0.01,VWS V14.01,2013-02-04 19:53:00,
2013-02-04 13:58:00,17.6,4.6,30.06,SW,219,2.0,9.0,56,0.00,,,0.01,VWS V14.01,2013-02-04 19:58:00,
2013-02-04 14:03:00,17.6,5.3,30.06,WSW,239,3.0,6.0,58,0.00,,,0.01,VWS V14.01,2013-02-04 20:03:00,
2013-02-04 14:08:00,17.2,4.6,30.06,SW,229,0.0,8.0,57,0.00,,,0.01,VWS V14.01,2013-02-04 20:08:00,
2013-02-04 14:13:00,17.1,4.9,30.06,SW,223,2.0,8.0,58,0.00,,,0.01,VWS V14.01,2013-02-04 20:13:00,
2013-02-04 14:18:00,17.1,4.5,30.05,WSW,241,3.0,9.0,57,0.00,,,0.01,VWS V14.01,2013-02-04 20:18:00,
2013-02-04 14:23:00,17.0,4.4,30.05,SW,236,0.0,9.0,57,0.00,,,0.01,VWS V14.01,2013-02-04 20:23:00,
2013-02-04 14:28:00,17.1,5.2,30.05,SW,236,0.0,9.0,59,0.00,,,0.01,VWS V14.01,2013-02-04 20:28:00,
2013-02-04 14:33:00,17.3,5.4,30.04,SW,235,4.0,4.0,59,0.00,,,0.01,VWS V14.01,2013-02-04 20:33:00,
2013-02-04 14:38:00,17.3,4.7,30.04,SW,225,0.0,4.0,57,0.00,,,0.01,VWS V14.01,2013-02-04 20:38:00,
2013-02-04 14:43:00,17.3,5.4,30.03,SW,226,0.0,4.0,59,0.00,,,0.01,VWS V14.01,2013-02-04 20:43:00,
2013-02-04 14:48:00,17.3,4.7,30.03,SW,221,0.0,4.0,57,0.00,,,0.01,VWS V14.01,2013-02-04 20:48:00,
2013-02-04 14:53:00,17.2,5.0,30.04,SSW,206,0.0,4.0,58,0.00,,,0.01,VWS V14.01,2013-02-04 20:53:00,
2013-02-04 14:58:00,17.1,4.9,30.04,SW,218,1.0,5.0,58,0.00,,,0.01,VWS V14.01,2013-02-04 20:58:00,
2013-02-04 15:04:00,16.8,4.2,30.04,SSW,199,1.0,5.0,57,0.00,,,0.01,VWS V14.01,2013-02-04 21:04:00,
2013-02-04 15:09:00,16.6,4.0,30.04,SW,226,2.0,6.0,57,0.00,,,0.01,VWS V14.01,2013-02-04 21:09:00,
2013-02-04 15:14:00,16.6,4.0,30.03,SW,226,3.0,6.0,57,0.00,,,0.01,VWS V14.01,2013-02-04 21:14:00,
2013-02-04 15:19:00,16.8,4.2,30.03,SW,226,3.0,6.0,57,0.00,,,0.01,VWS V14.01,2013-02-04 21:19:00,
2013-02-04 15:24:00,16.8,3.0,30.03,SW,226,4.0,6.0,54,0.00,,,0.01,VWS V14.01,2013-02-04 21:24:00,
2013-02-04 15:29:00,16.5,3.2,30.03,SW,228,2.0,6.0,55,0.00,,,0.01,VWS V14.01,2013-02-04 21:29:00,
2013-02-04 15:34:00,16.3,3.0,30.03,SW,228,4.0,5.0,55,0.00,,,0.01,VWS V14.01,2013-02-04 21:34:00,
2013-02-04 15:39:00,16.1,3.2,30.02,SW,228,4.0,5.0,56,0.00,,,0.01,VWS V14.01,2013-02-04 21:39:00,
2013-02-04 15:44:00,15.8,2.9,30.02,SW,227,2.0,5.0,56,0.00,,,0.01,VWS V14.01,2013-02-04 21:44:00,
2013-02-04 15:49:00,15.6,3.1,30.02,SW,227,4.0,5.0,57,0.00,,,0.01,VWS V14.01,2013-02-04 21:49:00,
2013-02-04 15:54:00,15.5,3.0,30.02,SW,227,0.0,5.0,57,0.00,,,0.01,VWS V14.01,2013-02-04 21:54:00,
2013-02-04 16:00:00,15.4,2.5,30.02,SW,227,2.0,5.0,56,0.00,,,0.01,VWS V14.01,2013-02-04 22:00:00,
2013-02-04 16:05:00,15.3,2.8,30.02,SW,226,2.0,4.0,57,0.00,,,0.01,VWS V14.01,2013-02-04 22:05:00,
2013-02-04 16:10:00,15.3,2.8,30.02,SW,226,0.0,5.0,57,0.00,,,0.01,VWS V14.01,2013-02-04 22:10:00,
2013-02-04 16:15:00,15.3,2.8,30.02,SW,226,0.0,5.0,57,0.00,,,0.01,VWS V14.01,2013-02-04 22:15:00,
2013-02-04 16:20:00,15.4,2.9,30.02,SW,226,0.0,5.0,57,0.00,,,0.01,VWS V14.01,2013-02-04 22:20:00,
2013-02-04 16:25:00,15.4,2.9,30.02,SW,226,0.0,5.0,57,0.00,,,0.01,VWS V14.01,2013-02-04 22:25:00,
2013-02-04 16:30:00,15.5,2.6,30.02,SW,226,0.0,0.0,56,0.00,,,0.01,VWS V14.01,2013-02-04 22:30:00,
2013-02-04 16:35:00,15.6,3.1,30.02,SW,226,4.0,4.0,57,0.00,,,0.01,VWS V14.01,2013-02-04 22:35:00,
2013-02-04 16:40:00,15.6,3.1,30.02,SW,226,0.0,5.0,57,0.00,,,0.01,VWS V14.01,2013-02-04 22:40:00,
2013-02-04 16:45:00,15.5,3.4,30.01,SW,226,0.0,5.0,58,0.00,,,0.01,VWS V14.01,2013-02-04 22:45:00,
2013-02-04 16:50:00,15.2,3.1,30.01,SW,226,0.0,5.0,58,0.00,,,0.01,VWS V14.01,2013-02-04 22:50:00,
2013-02-04 16:55:00,15.1,3.4,30.01,SW,226,1.0,5.0,59,0.00,,,0.01,VWS V14.01,2013-02-04 22:55:00,
2013-02-04 17:00:00,14.9,3.2,30.01,SW,226,0.0,0.0,59,0.00,,,0.01,VWS V14.01,2013-02-04 23:00:00,
2013-02-04 17:06:00,14.8,3.4,30.01,SW,226,0.0,0.0,60,0.00,,,0.01,VWS V14.01,2013-02-04 23:06:00,
2013-02-04 17:11:00,14.6,2.9,30.01,SW,226,0.0,5.0,59,0.00,,,0.01,VWS V14.01,2013-02-04 23:11:00,
2013-02-04 17:16:00,14.4,2.7,30.02,SW,226,0.0,5.0,59,0.00,,,0.01,VWS V14.01,2013-02-04 23:16:00,
2013-02-04 17:21:00,14.1,2.8,30.02,SW,226,1.0,5.0,60,0.00,,,0.01,VWS V14.01,2013-02-04 23:21:00,
2013-02-04 17:26:00,13.8,2.5,30.02,SW,227,0.0,5.0,60,0.00,,,0.01,VWS V14.01,2013-02-04 23:26:00,
2013-02-04 17:31:00,13.5,2.6,30.02,SW,226,1.0,4.0,61,0.00,,,0.01,VWS V14.01,2013-02-04 23:31:00,
2013-02-04 17:36:00,13.2,2.3,30.01,SW,226,0.0,4.0,61,0.00,,,0.01,VWS V14.01,2013-02-04 23:36:00,
2013-02-04 17:41:00,12.9,2.0,30.00,SW,226,0.0,5.0,61,0.00,,,0.01,VWS V14.01,2013-02-04 23:41:00,
2013-02-04 17:46:00,12.7,1.8,30.00,SW,227,4.0,5.0,61,0.00,,,0.01,VWS V14.01,2013-02-04 23:46:00,
2013-02-04 17:51:00,12.4,1.9,30.00,SW,227,0.0,5.0,62,0.00,,,0.01,VWS V14.01,2013-02-04 23:51:00,
2013-02-04 17:56:00,12.3,1.8,30.00,SW,227,0.0,5.0,62,0.00,,,0.01,VWS V14.01,2013-02-04 23:56:00,
2013-02-04 18:01:00,12.2,1.3,29.99,SW,226,0.0,0.0,61,0.00,,,0.01,VWS V14.01,2013-02-05 00:01:00,
2013-02-04 18:06:00,12.1,1.6,30.00,SW,226,0.0,3.0,62,0.00,,,0.01,VWS V14.01,2013-02-05 00:06:00,
2013-02-04 18:11:00,11.9,1.4,29.99,SW,227,0.0,3.0,62,0.00,,,0.01,VWS V14.01,2013-02-05 00:11:00,
2013-02-04 18:16:00,11.9,1.4,29.99,SW,226,0.0,3.0,62,0.00,,,0.01,VWS V14.01,2013-02-05 00:16:00,
2013-02-04 18:21:00,12.0,1.8,29.98,SW,226,0.0,3.0,63,0.00,,,0.01,VWS V14.01,2013-02-05 00:21:00,
2013-02-04 18:26:00,12.0,1.5,29.98,SW,226,0.0,3.0,62,0.00,,,0.01,VWS V14.01,2013-02-05 00:26:00,
2013-02-04 18:31:00,12.2,2.0,29.98,SW,227,0.0,0.0,63,0.00,,,0.01,VWS V14.01,2013-02-05 00:31:00,
2013-02-04 18:37:00,12.4,2.2,29.98,SW,226,0.0,0.0,63,0.00,,,0.01,VWS V14.01,2013-02-05 00:37:00,
2013-02-04 18:42:00,12.5,2.3,29.98,SW,226,0.0,0.0,63,0.00,,,0.01,VWS V14.01,2013-02-05 00:42:00,
2013-02-04 18:47:00,12.5,2.0,29.97,SW,226,0.0,0.0,62,0.00,,,0.01,VWS V14.01,2013-02-05 00:47:00,
2013-02-04 18:52:00,12.2,2.4,29.96,SW,226,0.0,0.0,64,0.00,,,0.01,VWS V14.01,2013-02-05 00:52:00,
2013-02-04 18:57:00,11.9,2.1,29.96,SW,226,0.0,0.0,64,0.00,,,0.01,VWS V14.01,2013-02-05 00:57:00,
2013-02-04 19:02:00,11.6,2.1,29.96,SW,226,0.0,0.0,65,0.00,,,0.01,VWS V14.01,2013-02-05 01:02:00,
2013-02-04 19:07:00,11.5,2.4,29.96,SW,226,0.0,0.0,66,0.00,,,0.01,VWS V14.01,2013-02-05 01:07:00,
2013-02-04 19:12:00,11.4,1.9,29.96,SW,226,0.0,0.0,65,0.00,,,0.01,VWS V14.01,2013-02-05 01:12:00,
2013-02-04 19:17:00,11.4,1.6,29.96,SW,226,0.0,0.0,64,0.00,,,0.01,VWS V14.01,2013-02-05 01:17:00,
2013-02-04 19:22:00,11.4,1.9,29.96,SW,227,0.0,0.0,65,0.00,,,0.01,VWS V14.01,2013-02-05 01:22:00,
2013-02-04 19:27:00,11.3,1.8,29.96,SW,227,0.0,0.0,65,0.00,,,0.01,VWS V14.01,2013-02-05 01:27:00,
2013-02-04 19:32:00,11.3,1.8,29.95,SW,226,0.0,0.0,65,0.00,,,0.01,VWS V14.01,2013-02-05 01:32:00,
2013-02-04 19:37:00,11.3,2.2,29.95,SW,227,0.0,0.0,66,0.00,,,0.01,VWS V14.01,2013-02-05 01:37:00,
2013-02-04 19:42:00,11.3,2.2,29.94,SW,226,0.0,2.0,66,0.00,,,0.01,VWS V14.01,2013-02-05 01:42:00,
2013-02-04 19:47:00,11.2,2.1,29.94,SW,226,0.0,2.0,66,0.00,,,0.01,VWS V14.01,2013-02-05 01:47:00,
2013-02-04 19:52:00,11.2,2.1,29.94,SW,226,0.0,2.0,66,0.00,,,0.01,VWS V14.01,2013-02-05 01:52:00,
2013-02-04 19:57:00,11.2,2.4,29.94,SW,226,0.0,2.0,67,0.00,,,0.01,VWS V14.01,2013-02-05 01:57:00,
2013-02-04 20:02:00,11.2,2.4,29.94,SW,226,0.0,0.0,67,0.00,,,0.01,VWS V14.01,2013-02-05 02:02:00,
2013-02-04 20:07:00,11.1,2.3,29.94,SW,226,0.0,0.0,67,0.00,,,0.01,VWS V14.01,2013-02-05 02:07:00,
2013-02-04 20:12:00,11.1,2.3,29.94,SW,226,0.0,0.0,67,0.00,,,0.01,VWS V14.01,2013-02-05 02:12:00,
2013-02-04 20:17:00,11.1,2.6,29.94,SW,226,0.0,0.0,68,0.00,,,0.01,VWS V14.01,2013-02-05 02:17:00,
2013-02-04 20:22:00,11.2,3.0,29.94,SW,226,0.0,0.0,69,0.00,,,0.01,VWS V14.01,2013-02-05 02:22:00,
2013-02-04 20:27:00,11.3,3.1,29.94,SW,226,0.0,0.0,69,0.00,,,0.01,VWS V14.01,2013-02-05 02:27:00,
2013-02-04 20:33:00,11.3,3.4,29.94,SW,226,0.0,0.0,70,0.00,,,0.01,VWS V14.01,2013-02-05 02:33:00,
2013-02-04 20:38:00,11.4,3.5,29.94,SW,226,0.0,0.0,70,0.00,,,0.01,VWS V14.01,2013-02-05 02:38:00,
2013-02-04 20:43:00,11.6,3.7,29.94,SW,226,0.0,0.0,70,0.00,,,0.01,VWS V14.01,2013-02-05 02:43:00,
2013-02-04 20:48:00,11.8,4.2,29.94,SW,226,0.0,0.0,71,0.00,,,0.01,VWS V14.01,2013-02-05 02:48:00,
2013-02-04 20:53:00,12.1,4.8,29.94,SW,226,0.0,1.0,72,0.00,,,0.01,VWS V14.01,2013-02-05 02:53:00,
2013-02-04 20:58:00,12.5,5.2,29.94,SW,226,0.0,1.0,72,0.00,,,0.01,VWS V14.01,2013-02-05 02:58:00,
2013-02-04 21:03:00,12.7,5.1,29.94,SW,226,0.0,1.0,71,0.00,,,0.01,VWS V14.01,2013-02-05 03:03:00,
2013-02-04 21:08:00,12.9,5.3,29.94,SW,226,0.0,1.0,71,0.00,,,0.01,VWS V14.01,2013-02-05 03:08:00,
2013-02-04 21:13:00,13.0,5.1,29.94,SW,226,0.0,1.0,70,0.00,,,0.01,VWS V14.01,2013-02-05 03:13:00,
2013-02-04 21:18:00,13.1,5.2,29.94,SW,226,0.0,1.0,70,0.00,,,0.01,VWS V14.01,2013-02-05 03:18:00,
2013-02-04 21:23:00,13.2,5.6,29.94,SW,226,0.0,1.0,71,0.00,,,0.01,VWS V14.01,2013-02-05 03:23:00,
2013-02-04 21:28:00,13.2,5.3,29.93,SW,226,0.0,1.0,70,0.00,,,0.01,VWS V14.01,2013-02-05 03:28:00,
2013-02-04 21:33:00,13.2,5.6,29.93,SW,226,0.0,0.0,71,0.00,,,0.01,VWS V14.01,2013-02-05 03:33:00,
2013-02-04 21:38:00,13.2,5.9,29.93,SW,226,0.0,1.0,72,0.00,,,0.01,VWS V14.01,2013-02-05 03:38:00,
2013-02-04 21:43:00,13.0,5.7,29.93,SW,226,0.0,1.0,72,0.00,,,0.01,VWS V14.01,2013-02-05 03:43:00,
2013-02-04 21:49:00,12.7,5.7,29.92,SW,226,0.0,1.0,73,0.00,,,0.01,VWS V14.01,2013-02-05 03:49:00,
2013-02-04 21:54:00,12.5,6.1,29.92,SW,226,0.0,1.0,75,0.00,,,0.01,VWS V14.01,2013-02-05 03:54:00,
2013-02-04 21:59:00,12.3,6.5,29.92,SW,226,0.0,1.0,77,0.00,,,0.01,VWS V14.01,2013-02-05 03:59:00,
2013-02-04 22:04:00,12.1,6.6,29.92,SW,226,0.0,0.0,78,0.00,,,0.01,VWS V14.01,2013-02-05 04:04:00,
2013-02-04 22:09:00,11.9,6.9,29.91,SW,226,0.0,3.0,80,0.00,,,0.01,VWS V14.01,2013-02-05 04:09:00,
2013-02-04 22:14:00,11.9,7.2,29.91,SW,226,0.0,3.0,81,0.00,,,0.01,VWS V14.01,2013-02-05 04:14:00,
2013-02-04 22:19:00,11.8,7.4,29.90,SW,226,0.0,3.0,82,0.00,,,0.01,VWS V14.01,2013-02-05 04:19:00,
2013-02-04 22:24:00,11.8,7.6,29.90,SW,224,0.0,3.0,83,0.00,,,0.01,VWS V14.01,2013-02-05 04:24:00,
2013-02-04 22:29:00,11.8,7.9,29.89,SW,224,0.0,3.0,84,0.00,,,0.01,VWS V14.01,2013-02-05 04:29:00,
2013-02-04 22:34:00,11.8,7.9,29.89,SW,224,0.0,1.0,84,0.00,,,0.01,VWS V14.01,2013-02-05 04:34:00,
2013-02-04 22:39:00,11.8,8.2,29.88,SW,225,0.0,3.0,85,0.00,,,0.01,VWS V14.01,2013-02-05 04:39:00,
2013-02-04 22:44:00,11.8,8.4,29.88,SW,224,0.0,3.0,86,0.01,,,0.02,VWS V14.01,2013-02-05 04:44:00,
2013-02-04 22:49:00,11.9,8.5,29.88,SW,224,1.0,3.0,86,0.01,,,0.02,VWS V14.01,2013-02-05 04:49:00,
2013-02-04 22:54:00,11.9,8.5,29.87,SW,223,0.0,3.0,86,0.01,,,0.02,VWS V14.01,2013-02-05 04:54:00,
2013-02-04 22:59:00,12.1,9.0,29.86,SW,223,0.0,3.0,87,0.01,,,0.02,VWS V14.01,2013-02-05 04:59:00,
2013-02-04 23:00:00,12.1,9.0,29.86,SW,226,0.0,3.0,87,0.01,,,0.02,VWS V14.01,2013-02-05 05:00:00,
2013-02-04 23:05:00,12.2,9.1,29.85,SW,223,0.0,1.0,87,0.01,,,0.02,VWS V14.01,2013-02-05 05:05:00,
2013-02-04 23:10:00,12.3,9.2,29.85,South,191,0.0,2.0,87,0.01,,,0.02,VWS V14.01,2013-02-05 05:10:00,
2013-02-04 23:15:00,12.5,9.4,29.84,SW,214,0.0,3.0,87,0.01,,,0.02,VWS V14.01,2013-02-05 05:15:00,
2013-02-04 23:20:00,12.6,9.5,29.83,SSW,212,1.0,3.0,87,0.01,,,0.02,VWS V14.01,2013-02-05 05:20:00,
2013-02-04 23:25:00,12.8,9.9,29.83,SSW,195,0.0,3.0,88,0.01,,,0.02,VWS V14.01,2013-02-05 05:25:00,
2013-02-04 23:31:00,13.0,10.1,29.83,SSW,206,0.0,2.0,88,0.01,,,0.02,VWS V14.01,2013-02-05 05:31:00,
2013-02-04 23:36:00,13.3,10.4,29.83,South,185,0.0,2.0,88,0.01,,,0.02,VWS V14.01,2013-02-05 05:36:00,
2013-02-04 23:41:00,13.6,10.7,29.82,South,185,0.0,3.0,88,0.01,,,0.02,VWS V14.01,2013-02-05 05:41:00,
2013-02-04 23:46:00,13.8,10.9,29.82,SSE,153,0.0,3.0,88,0.01,,,0.02,VWS V14.01,2013-02-05 05:46:00,
2013-02-04 23:51:00,14.1,11.5,29.81,ESE,119,0.0,3.0,89,0.01,,,0.02,VWS V14.01,2013-02-05 05:51:00,
2013-02-04 23:56:00,14.4,11.8,29.81,ESE,116,0.0,3.0,89,0.01,,,0.02,VWS V14.01,2013-02-05 05:56:00,